TimeCDT,TemperatureF,Dew PointF,Humidity,Sea Level PressureIn,VisibilityMPH,Wind Direction,Wind SpeedMPH,Gust SpeedMPH,PrecipitationIn,Events,Conditions,WindDirDegrees,DateUTC
12:53 AM,46.9,39.9,77,30.03,10.0,Calm,Calm,-,N/A,,Partly Cloudy,0,2012-11-03 05:53:00
1:53 AM,45.0,39.9,82,30.03,10.0,Calm,Calm,-,N/A,,Clear,0,2012-11-03 06:53:00
2:53 AM,45.0,41.0,86,30.03,10.0,SE,3.5,-,N/A,,Clear,140,2012-11-03 07:53:00
3:53 AM,44.1,39.9,85,30.03,10.0,Calm,Calm,-,N/A,,Clear,0,2012-11-03 08:53:00
4:53 AM,46.9,42.1,83,30.04,10.0,East,3.5,-,N/A,,Clear,90,2012-11-03 09:53:00
5:53 AM,46.0,39.9,79,30.06,10.0,Calm,Calm,-,N/A,,Clear,0,2012-11-03 10:53:00
6:53 AM,46.0,39.9,79,30.07,10.0,Calm,Calm,-,N/A,,Clear,0,2012-11-03 11:53:00
7:53 AM,48.0,43.0,83,30.09,10.0,East,3.5,-,N/A,,Clear,90,2012-11-03 12:53:00
8:53 AM,55.0,45.0,69,30.09,10.0,ESE,4.6,-,N/A,,Clear,110,2012-11-03 13:53:00
9:53 AM,63.0,46.0,54,30.09,10.0,SE,4.6,-,N/A,,Clear,140,2012-11-03 14:53:00
10:53 AM,71.1,48.0,44,30.09,10.0,Variable,3.5,-,N/A,,Clear,0,2012-11-03 15:53:00
11:53 AM,75.9,54.0,46,30.06,10.0,West,5.8,-,N/A,,Clear,260,2012-11-03 16:53:00
12:53 PM,79.0,55.0,44,30.03,10.0,WNW,9.2,16.1,N/A,,Clear,300,2012-11-03 17:53:00
1:53 PM,81.0,55.0,41,30.00,10.0,SW,6.9,-,N/A,,Clear,230,2012-11-03 18:53:00
2:53 PM,82.9,52.0,34,29.98,10.0,WSW,13.8,-,N/A,,Partly Cloudy,240,2012-11-03 19:53:00
3:53 PM,84.0,48.0,28,29.97,10.0,WSW,16.1,21.9,N/A,,Partly Cloudy,250,2012-11-03 20:53:00
4:53 PM,81.0,46.9,30,29.96,10.0,WSW,12.7,21.9,N/A,,Partly Cloudy,240,2012-11-03 21:53:00
5:53 PM,75.9,46.0,35,29.94,10.0,WSW,6.9,-,N/A,,Partly Cloudy,240,2012-11-03 22:53:00
6:53 PM,71.1,46.9,42,29.96,10.0,SW,6.9,-,N/A,,Partly Cloudy,230,2012-11-03 23:53:00
7:53 PM,66.9,46.0,47,29.97,10.0,SW,6.9,-,N/A,,Mostly Cloudy,220,2012-11-04 00:53:00
8:53 PM,70.0,48.0,46,29.98,10.0,SW,9.2,-,N/A,,Mostly Cloudy,230,2012-11-04 01:53:00
9:53 PM,63.0,55.9,78,30.03,5.0,NW,11.5,27.6,0.01,Rain,Rain,310,2012-11-04 02:53:00
10:13 PM,62.6,55.4,77,30.05,2.5,WNW,11.5,18.4,0.08,Rain-Thunderstorm,Heavy Thunderstorms and Rain,290,2012-11-04 03:13:00
10:19 PM,60.8,57.2,88,30.06,2.0,West,10.4,-,0.13,Rain-Thunderstorm,Heavy Thunderstorms and Rain,280,2012-11-04 03:19:00
10:32 PM,62.6,57.2,82,30.06,3.0,West,9.2,19.6,0.20,Rain-Thunderstorm,Thunderstorms and Rain,270,2012-11-04 03:32:00
10:43 PM,62.6,57.2,82,30.04,5.0,SW,10.4,-,0.22,Rain,Rain,230,2012-11-04 03:43:00
10:53 PM,62.6,57.2,82,30.07,10.0,West,6.9,17.3,N/A,Rain,Light Rain,280,2012-11-04 03:53:00
11:53 PM,61.0,57.0,87,30.02,10.0,SSW,5.8,-,0.05,Rain,Light Rain,200,2012-11-04 04:53:00